EW7351 Weather Reports


time (UTC)temp
C
wind
direction
speed
KPH
gust
KPH
rain 1hr
cm
rain 24hr
cm
rain mn
cm
humidity
%
barometer
mb
20260510015156 24 58 0.0 0.0 0.00 0.00 0.00 65 1007.3
20260510014909 25 58 0.0 0.0 0.00 0.00 0.00 64 1007.3
20260510014543 25 58 0.0 0.0 0.00 0.00 0.00 62 1007.2
20260510014205 25 58 0.0 0.0 0.00 0.00 0.00 63 1007.3
20260510013536 25 58 0.0 0.0 0.00 0.00 0.00 59 1007.2
20260510012810 25 58 0.0 0.0 0.00 0.00 0.00 58 1007.1
20260510012026 26 58 0.0 0.0 0.00 0.00 0.00 57 1007.0
20260510011456 26 58 0.0 3.2 0.00 0.00 0.00 57 1006.9
20260510011217 26 58 0.0 3.2 0.00 0.00 0.00 56 1006.8
20260510010429 26 30 0.0 1.6 0.00 0.00 0.00 54 1006.8
20260510005900 27 30 0.0 1.6 0.00 0.00 0.00 53 1006.7
20260510005357 27 30 0.0 1.6 0.00 0.00 0.00 52 1006.7
20260510004828 27 47 0.0 1.6 0.00 0.00 0.00 51 1006.7
20260510004327 27 49 0.0 1.6 0.00 0.00 0.00 50 1006.7
20260510003758 28 49 0.0 1.6 0.00 0.00 0.00 50 1006.7
20260510003256 28 49 0.0 1.6 0.00 0.00 0.00 50 1006.7
20260510002752 28 69 0.0 4.8 0.00 0.00 0.00 49 1006.7
20260510002511 28 75 0.0 3.2 0.00 0.00 0.00 47 1006.7
20260510001722 29 49 0.0 6.4 0.00 0.00 0.00 46 1006.8
20260510001218 29 324 0.0 6.4 0.00 0.00 0.00 44 1006.8
20260510000654 30 69 0.0 6.4 0.00 0.00 0.00 43 1006.8
20260510000126 30 35 0.0 6.4 0.00 0.00 0.00 42 1006.7
20260509235623 30 66 0.0 4.8 0.00 0.00 0.00 41 1006.7
20260509235342 30 54 0.0 4.8 0.00 0.00 0.00 41 1006.7
20260509234619 30 62 0.0 4.8 0.00 0.00 0.00 42 1006.7
20260509234051 30 77 0.0 4.8 0.00 0.00 0.00 44 1006.7
20260509234035 30 15 0.0 4.8 0.00 0.00 0.00 42 1006.7
20260509233044 30 336 0.0 4.8 0.00 0.00 0.00 42 1006.7
20260509232542 30 336 0.0 4.8 0.00 0.00 0.00 43 1006.7
20260509232018 30 56 0.0 4.8 0.00 0.00 0.00 45 1006.7
20260509231448 31 68 0.0 4.8 0.00 0.00 0.00 43 1006.7
20260509230947 30 68 0.0 8.0 0.00 0.00 0.00 42 1006.8
20260509230422 30 338 1.6 8.0 0.00 0.00 0.00 40 1006.8
20260509225852 30 73 1.6 8.0 0.00 0.00 0.00 38 1006.7
20260509225351 31 329 1.6 8.0 0.00 0.00 0.00 38 1006.7
20260509224824 31 36 0.0 8.0 0.00 0.00 0.00 39 1006.7
20260509224256 31 140 0.0 8.0 0.00 0.00 0.00 41 1006.7
20260509224020 31 86 0.0 4.8 0.00 0.00 0.00 41 1006.7
20260509223250 31 252 1.6 8.0 0.00 0.00 0.00 42 1006.7
20260509222746 31 130 1.6 8.0 0.00 0.00 0.00 43 1006.7
20260509222222 31 300 0.0 4.8 0.00 0.00 0.00 45 1006.6
20260509221654 31 51 0.0 4.8 0.00 0.00 0.00 46 1006.6
20260509221410 31 314 0.0 4.8 0.00 0.00 0.00 45 1006.7
20260509220645 30 10 0.0 4.8 0.00 0.00 0.00 46 1006.7
20260509220118 30 339 1.6 9.7 0.00 0.00 0.00 47 1006.7
20260509215558 30 121 3.2 11.3 0.00 0.00 0.00 48 1006.7
20260509215058 30 349 1.6 11.3 0.00 0.00 0.00 45 1006.7
20260509214558 31 11 1.6 9.7 0.00 0.00 0.00 45 1006.8
20260509214053 31 6 0.0 6.4 0.00 0.00 0.00 48 1006.8
20260509213530 31 39 0.0 6.4 0.00 0.00 0.00 44 1006.9
20260509213000 31 9 1.6 6.4 0.00 0.00 0.00 46 1006.9
20260509212459 31 119 1.6 8.0 0.00 0.00 0.00 47 1007.1
20260509211942 31 78 1.6 8.0 0.00 0.00 0.00 47 1007.1
20260509211440 31 107 1.6 11.3 0.00 0.00 0.00 47 1007.1
20260509210940 31 82 1.6 11.3 0.00 0.00 0.00 45 1007.2
20260509210440 31 59 0.0 4.8 0.00 0.00 0.00 49 1007.3
20260509205910 31 338 1.6 9.7 0.00 0.00 0.00 48 1007.2
20260509205408 31 115 1.6 9.7 0.00 0.00 0.00 52 1007.4
20260509205104 30 155 0.0 6.4 0.00 0.00 0.00 54 1007.5
20260509204317 30 28 1.6 12.9 0.00 0.00 0.00 50 1007.6
20260509203748 30 15 3.2 12.9 0.00 0.00 0.00 47 1007.6
20260509203246 30 100 4.8 12.9 0.00 0.00 0.00 51 1007.7
20260509202733 30 330 3.2 12.9 0.00 0.00 0.00 48 1007.8
20260509202231 30 69 1.6 6.4 0.00 0.00 0.00 53 1007.9
20260509201734 30 146 1.6 6.4 0.00 0.00 0.00 53 1007.9
20260509201208 30 74 1.6 9.7 0.00 0.00 0.00 51 1008.0
20260509200705 30 1 1.6 9.7 0.00 0.00 0.00 51 1008.0
20260509200142 30 96 0.0 8.0 0.00 0.00 0.00 56 1008.0
20260509195614 30 18 1.6 8.0 0.00 0.00 0.00 52 1008.0
20260509195317 29 38 3.2 9.7 0.00 0.00 0.00 56 1008.0
20260509194739 30 26 1.6 9.7 0.00 0.00 0.00 54 1008.1
20260509194017 30 146 1.6 8.0 0.00 0.00 0.00 54 1008.2
20260509193517 30 176 1.6 8.0 0.00 0.00 0.00 57 1008.2
20260509193218 30 144 1.6 11.3 0.00 0.00 0.00 61 1008.2
20260509192428 29 357 1.6 11.3 0.00 0.00 0.00 59 1008.2
20260509191900 30 341 1.6 11.3 0.00 0.00 0.00 57 1008.3
20260509191338 30 53 1.6 11.3 0.00 0.00 0.00 58 1008.4
20260509190837 29 47 1.6 9.7 0.00 0.00 0.00 59 1008.4
20260509190316 29 77 1.6 9.7 0.00 0.00 0.00 62 1008.4
20260509185941 29 321 1.6 9.7 0.00 0.00 0.00 61 1008.5
20260509185441 28 131 3.2 20.9 0.00 0.00 0.00 61 1008.5
20260509184711 28 73 4.8 20.9 0.00 0.00 0.00 60 1008.4
20260509184212 28 347 3.2 16.1 0.00 0.00 0.00 59 1008.4
20260509183709 28 45 1.6 16.1 0.00 0.00 0.00 62 1008.4
20260509183435 28 72 3.2 12.9 0.00 0.00 0.00 62 1008.4
20260509182648 28 322 3.2 14.5 0.00 0.00 0.00 60 1008.4
20260509182149 28 83 3.2 14.5 0.00 0.00 0.00 64 1008.5
20260509181916 28 50 3.2 12.9 0.00 0.00 0.00 61 1008.6
20260509181128 28 323 3.2 12.9 0.00 0.00 0.00 60 1008.7
20260509180627 28 328 3.2 11.3 0.00 0.00 0.00 61 1008.7
20260509180338 28 63 1.6 9.7 0.00 0.00 0.00 62 1008.7
20260509175548 28 326 1.6 12.9 0.00 0.00 0.00 61 1008.8
20260509175026 28 348 1.6 12.9 0.00 0.00 0.00 62 1008.9
20260509174747 27 347 1.6 9.7 0.00 0.00 0.00 62 1009.0
20260509174024 27 336 1.6 9.7 0.00 0.00 0.00 62 1008.9
20260509173500 28 354 1.6 9.7 0.00 0.00 0.00 61 1009.0
20260509172941 28 355 1.6 11.3 0.00 0.00 0.00 64 1009.1
20260509172416 28 337 1.6 11.3 0.00 0.00 0.00 61 1009.1
20260509171850 28 249 1.6 8.0 0.00 0.00 0.00 60 1009.1
20260509171327 27 118 1.6 8.0 0.00 0.00 0.00 64 1009.2
20260509170758 27 27 1.6 8.0 0.00 0.00 0.00 64 1009.3
20260509170258 27 356 3.2 9.7 0.00 0.00 0.00 62 1009.3
20260509165755 27 359 1.6 9.7 0.00 0.00 0.00 62 1009.2
20260509165255 27 336 1.6 11.3 0.00 0.00 0.00 66 1009.1
20260509164755 27 354 1.6 11.3 0.00 0.00 0.00 66 1009.2
20260509164256 27 68 1.6 6.4 0.00 0.00 0.00 64 1009.2
20260509163943 27 8 1.6 9.7 0.00 0.00 0.00 64 1009.2
20260509163225 27 52 1.6 9.7 0.00 0.00 0.00 65 1009.3
20260509162659 26 5 1.6 6.4 0.00 0.00 0.00 66 1009.2
20260509162157 26 329 1.6 6.4 0.00 0.00 0.00 67 1009.2
20260509161633 26 22 3.2 11.3 0.00 0.00 0.00 68 1009.2
20260509161128 26 20 1.6 11.3 0.00 0.00 0.00 68 1009.1
20260509160626 26 334 3.2 11.3 0.00 0.00 0.00 68 1009.2
20260509160349 25 13 4.8 17.7 0.00 0.00 0.00 69 1009.2
20260509155623 25 326 3.2 17.7 0.00 0.00 0.00 69 1009.2
20260509155118 25 9 3.2 11.3 0.00 0.00 0.00 70 1009.1
20260509154614 25 338 3.2 9.7 0.00 0.00 0.00 69 1009.1
20260509154113 25 38 1.6 11.3 0.00 0.00 0.00 71 1009.1
20260509153609 25 358 3.2 11.3 0.00 0.00 0.00 70 1009.1
20260509153105 25 323 1.6 9.7 0.00 0.00 0.00 71 1009.1
20260509152825 25 349 3.2 9.7 0.00 0.00 0.00 72 1009.0
20260509152037 25 72 3.2 14.5 0.00 0.00 0.00 72 1008.9
20260509151512 25 337 3.2 14.5 0.00 0.00 0.00 71 1009.0
20260509150946 24 352 4.8 12.9 0.00 0.00 0.00 72 1009.0
20260509150420 24 350 4.8 9.7 0.00 0.00 0.00 73 1009.0
20260509150119 24 342 4.8 17.7 0.00 0.00 0.00 73 1009.1
20260509145349 24 351 4.8 9.7 0.00 0.00 0.00 74 1009.1
20260509144848 23 320 3.2 12.9 0.00 0.00 0.00 74 1009.2
20260509144544 23 321 3.2 12.9 0.00 0.00 0.00 76 1009.3
20260509144243 23 330 1.6 11.3 0.00 0.00 0.00 76 1009.2
20260509143251 23 9 1.6 11.3 0.00 0.00 0.00 77 1009.2
20260509142749 23 353 3.2 9.7 0.00 0.00 0.00 78 1009.2
20260509142222 23 12 3.2 9.7 0.00 0.00 0.00 78 1009.1
20260509141720 23 350 1.6 9.7 0.00 0.00 0.00 77 1009.1
20260509141216 23 17 1.6 9.7 0.00 0.00 0.00 77 1009.0
20260509140713 23 274 3.2 12.9 0.00 0.00 0.00 80 1008.9
20260509140147 22 6 3.2 12.9 0.00 0.00 0.00 79 1008.9
20260509135838 22 70 3.2 9.7 0.00 0.00 0.00 79 1008.8
20260509135114 23 37 3.2 9.7 0.00 0.00 0.00 78 1008.9
20260509134550 22 58 3.2 12.9 0.00 0.00 0.00 79 1008.8
20260509134238 22 28 3.2 12.9 0.00 0.00 0.00 81 1008.7
20260509133454 22 36 3.2 12.9 0.00 0.00 0.00 81 1008.7
20260509132941 22 54 1.6 12.9 0.00 0.00 0.00 82 1008.7
20260509132658 22 274 0.0 9.7 0.00 0.00 0.00 83 1008.7
20260509131911 22 359 3.2 8.0 0.00 0.00 0.00 84 1008.6
20260509131346 21 27 3.2 11.3 0.00 0.00 0.00 84 1008.4
20260509130820 21 347 0.0 9.7 0.00 0.00 0.00 86 1008.5
20260509130316 21 276 0.0 4.8 0.00 0.00 0.00 87 1008.6
20260509125748 21 228 0.0 4.8 0.00 0.00 0.00 88 1008.6
20260509125242 21 276 0.0 4.8 0.00 0.00 0.00 89 1008.5
20260509124740 20 221 0.0 3.2 0.00 0.00 0.00 89 1008.5
20260509124210 20 224 0.0 3.2 0.00 0.00 0.00 89 1008.7
20260509123709 20 124 0.0 0.0 0.00 0.00 0.00 89 1008.5
20260509123142 19 124 0.0 0.0 0.00 0.00 0.00 89 1008.6
20260509122618 19 124 0.0 0.0 0.00 0.00 0.00 88 1008.7
20260509122320 19 124 0.0 0.0 0.00 0.00 0.00 88 1008.5
20260509121742 19 124 0.0 0.0 0.00 0.00 0.00 88 1008.6
20260509120954 20 124 0.0 0.0 0.00 0.00 0.00 88 1008.5
20260509120710 20 124 0.0 0.0 0.00 0.00 0.00 88 1008.5
20260509115948 20 124 0.0 0.0 0.00 0.00 0.00 88 1008.5
20260509115416 20 124 0.0 0.0 0.00 0.00 0.00 88 1008.5
20260509114847 20 124 0.0 0.0 0.00 0.00 0.00 87 1008.4
20260509114345 20 124 0.0 0.0 0.00 0.00 0.00 87 1008.2
20260509113841 20 124 0.0 0.0 0.00 0.00 0.00 87 1008.2
20260509113338 20 124 0.0 0.0 0.00 0.00 0.00 87 1008.0
20260509112813 20 124 0.0 0.0 0.00 0.00 0.00 86 1007.9
20260509112246 20 124 0.0 0.0 0.00 0.00 0.00 87 1007.9
20260509111744 20 124 0.0 1.6 0.00 0.00 0.00 87 1007.9
20260509111231 20 124 0.0 4.8 0.00 0.00 0.00 87 1007.8
20260509110734 20 124 0.0 4.8 0.00 0.00 0.00 87 1007.7
20260509110424 20 124 1.6 4.8 0.00 0.00 0.00 87 1007.7
20260509105931 20 114 1.6 6.4 0.00 0.00 0.00 87 1007.5
20260509105135 20 122 1.6 6.4 0.00 0.00 0.00 87 1007.6
20260509104633 20 134 0.0 1.6 0.00 0.00 0.00 87 1007.6
20260509104109 20 230 0.0 0.0 0.00 0.00 0.00 87 1007.7
20260509103814 20 231 0.0 0.0 0.00 0.00 0.00 87 1007.7
20260509103320 20 231 0.0 0.0 0.00 0.00 0.00 87 1007.6
20260509102532 20 230 0.0 0.0 0.00 0.00 0.00 87 1007.6
20260509102003 20 230 0.0 0.0 0.00 0.00 0.00 86 1007.5
20260509101502 20 231 0.0 0.0 0.00 0.00 0.00 86 1007.6
20260509100936 20 230 0.0 1.6 0.00 0.00 0.00 86 1007.5
20260509100628 20 231 0.0 1.6 0.00 0.00 0.00 86 1007.6
20260509100130 20 230 0.0 4.8 0.00 0.00 0.00 86 1007.4
20260509095340 20 235 1.6 4.8 0.00 0.00 0.00 86 1007.3
20260509095035 20 229 3.2 9.7 0.00 0.00 0.00 87 1007.2
20260509094250 20 238 1.6 8.0 0.00 0.00 0.00 87 1007.1
20260509093720 20 241 1.6 11.3 0.00 0.00 0.00 87 1007.0
20260509093219 20 195 4.8 11.3 0.00 0.00 0.00 87 1006.8
20260509092653 20 226 6.4 14.5 0.00 0.00 0.00 87 1006.2
20260509092344 20 150 4.8 14.5 0.00 0.00 0.00 87 1006.0
20260509091622 20 139 4.8 11.3 0.00 0.00 0.00 87 1006.0
20260509091054 20 124 4.8 14.5 0.00 0.00 0.00 86 1005.9
20260509090550 20 109 4.8 14.5 0.00 0.00 0.00 86 1005.7
20260509090047 20 136 4.8 14.5 0.00 0.00 0.00 86 1005.7
20260509085543 20 128 3.2 14.5 0.00 0.00 0.00 85 1006.0
20260509085241 20 192 3.2 14.5 0.00 0.00 0.00 85 1006.2
20260509084710 20 137 6.4 17.7 0.00 0.00 0.00 85 1006.3
20260509083926 20 153 6.4 17.7 0.00 0.00 0.00 85 1006.3
20260509083650 20 149 4.8 11.3 0.00 0.00 0.00 85 1006.6
20260509082920 20 96 3.2 9.7 0.00 0.00 0.00 84 1007.0
20260509082846 20 261 3.2 9.7 0.00 0.00 0.00 84 1007.4
20260509081829 20 156 3.2 8.0 0.00 0.00 0.00 84 1007.8
20260509081324 21 146 3.2 8.0 0.00 0.00 0.00 84 1007.7
20260509081234 21 99 3.2 8.0 0.00 0.00 0.00 84 1008.0
20260509080515 21 128 1.6 8.0 0.00 0.00 0.00 84 1008.0
20260509075729 20 140 0.0 6.4 0.00 0.00 0.00 84 1008.4
20260509075227 20 134 0.0 3.2 0.00 0.00 0.00 84 1008.4
20260509074724 20 129 0.0 1.6 0.00 0.00 0.00 85 1008.5
20260509074225 20 124 0.0 1.6 0.00 0.00 0.00 85 1008.7
20260509073659 20 123 0.0 1.6 0.00 0.00 0.00 84 1008.9
20260509073139 20 205 0.0 0.0 0.00 0.00 0.00 84 1009.1
20260509072637 20 205 0.0 0.0 0.00 0.00 0.00 84 1009.1
20260509072127 20 205 0.0 0.0 0.00 0.00 0.00 84 1009.2
20260509071605 20 205 0.0 0.0 0.00 0.00 0.00 83 1009.3
20260509071324 20 205 0.0 0.0 0.00 0.00 0.00 83 1009.3
20260509070605 20 205 0.0 1.6 0.00 0.00 0.00 83 1009.2
20260509070049 20 205 0.0 1.6 0.00 0.00 0.00 83 1008.9
20260509065527 20 205 0.0 4.8 0.00 0.00 0.00 83 1008.7
20260509065025 20 252 0.0 4.8 0.00 0.00 0.00 83 1008.4
20260509064746 21 165 1.6 8.0 0.00 0.00 0.00 82 1008.2
20260509064006 21 234 1.6 8.0 0.00 0.00 0.00 83 1008.4
20260509063442 21 233 1.6 6.4 0.00 0.00 0.00 83 1008.6
20260509062927 20 259 1.6 4.8 0.00 0.00 0.00 83 1008.6
20260509062424 20 236 1.6 4.8 0.00 0.00 0.00 83 1008.6
20260509061858 20 153 0.0 3.2 0.00 0.00 0.00 83 1008.5
20260509061342 20 127 0.0 0.0 0.00 0.00 0.00 82 1008.7
20260509060816 20 131 0.0 0.0 0.00 0.00 0.00 82 1009.1
20260509060520 20 131 0.0 3.2 0.00 0.00 0.00 81 1009.0
20260509055734 21 131 0.0 3.2 0.00 0.00 0.00 81 1009.0
20260509055501 21 343 0.0 3.2 0.00 0.00 0.00 81 1009.5
20260509054710 21 221 1.6 6.4 0.00 0.00 0.00 81 1009.4
20260509054153 21 231 1.6 6.4 0.00 0.00 0.00 81 1008.9
20260509053630 21 190 0.0 0.0 0.00 0.00 0.00 80 1009.4
20260509053106 21 326 0.0 4.8 0.00 0.00 0.00 80 1009.9
20260509052827 21 326 1.6 4.8 0.00 0.00 0.00 79 1010.1
20260509052105 21 25 1.6 4.8 0.00 0.00 0.00 79 1009.9
20260509051603 21 27 1.6 6.4 0.00 0.00 0.00 79 1009.6
20260509051102 21 273 3.2 8.0 0.00 0.00 0.00 79 1008.9
20260509050543 21 172 1.6 8.0 0.00 0.00 0.00 78 1008.6
20260509050039 21 235 1.6 6.4 0.00 0.00 0.00 78 1008.7
20260509045538 21 255 1.6 6.4 0.00 0.00 0.00 78 1008.8
20260509045005 21 250 4.8 12.9 0.00 0.00 0.00 78 1008.3
20260509044436 21 152 3.2 12.9 0.00 0.00 0.00 77 1008.1
20260509043935 21 226 1.6 6.4 0.00 0.00 0.00 78 1008.3
20260509043425 21 134 3.2 8.0 0.00 0.00 0.00 78 1008.3
20260509042922 21 112 3.2 9.7 0.00 0.00 0.00 78 1008.2
20260509042355 21 108 3.2 9.7 0.00 0.00 0.00 78 1008.1
20260509041853 21 120 1.6 6.4 0.00 0.00 0.00 77 1008.4
20260509041355 21 139 0.0 3.2 0.00 0.00 0.00 77 1008.9
20260509040838 22 112 0.0 0.0 0.00 0.00 0.00 77 1009.2
20260509040340 22 112 0.0 0.0 0.00 0.00 0.00 76 1009.4
20260509040056 22 112 0.0 0.0 0.00 0.00 0.00 76 1009.4
20260509035335 22 112 0.0 0.0 0.00 0.00 0.00 76 1009.4
20260509035028 22 112 0.0 0.0 0.00 0.00 0.00 76 1009.3
20260509034303 21 112 0.0 0.0 0.00 0.00 0.00 76 1009.2
20260509033800 21 112 0.0 0.0 0.00 0.00 0.00 76 1009.0
20260509033258 21 112 0.0 0.0 0.00 0.00 0.00 75 1008.9
20260509032949 22 112 0.0 1.6 0.00 0.00 0.00 75 1008.6
20260509032230 21 112 0.0 3.2 0.00 0.00 0.00 75 1008.5
20260509031716 21 257 0.0 3.2 0.00 0.00 0.00 75 1008.5
20260509031434 21 129 0.0 1.6 0.00 0.00 0.00 75 1008.6
20260509030902 21 129 0.0 1.6 0.00 0.00 0.00 75 1008.7
20260509030116 21 129 0.0 3.2 0.00 0.00 0.00 75 1008.6
20260509025610 21 145 0.0 3.2 0.00 0.00 0.00 74 1008.5
20260509025329 21 145 0.0 3.2 0.00 0.00 0.00 74 1008.3
20260509024604 22 187 1.6 4.8 0.00 0.00 0.00 74 1008.1
20260509024104 22 226 1.6 4.8 0.00 0.00 0.00 74 1007.9
20260509023550 22 161 1.6 8.0 0.00 0.00 0.00 74 1007.9
20260509023052 22 121 1.6 8.0 0.00 0.00 0.00 73 1008.0
20260509022528 22 302 1.6 6.4 0.00 0.00 0.00 73 1007.7
20260509022028 22 165 1.6 6.4 0.00 0.00 0.00 73 1007.6
20260509021455 22 129 1.6 8.0 0.00 0.00 0.00 73 1007.6
20260509020952 22 120 1.6 8.0 0.00 0.00 0.00 72 1007.7
20260509020449 22 159 1.6 6.4 0.00 0.00 0.00 72 1007.8
20260509020158 22 113 1.6 9.7 0.00 0.00 0.00 72 1007.8
20260509015709 22 165 3.2 9.7 0.00 0.00 0.00 72 1007.7